TimeCDT,TemperatureF,Dew PointF,Humidity,Sea Level PressureIn,VisibilityMPH,Wind Direction,Wind SpeedMPH,Gust SpeedMPH,PrecipitationIn,Events,Conditions,WindDirDegrees,DateUTC
1:53 AM,52.0,34.0,50,30.03,10.0,East,5.8,-,N/A,,Clear,100,2013-03-21 06:53:00
2:53 AM,52.0,36.0,54,30.00,10.0,ESE,6.9,-,N/A,,Clear,110,2013-03-21 07:53:00
3:53 AM,52.0,35.1,53,29.97,10.0,ESE,8.1,-,N/A,,Clear,120,2013-03-21 08:53:00
4:53 AM,50.0,35.1,57,29.95,10.0,ESE,8.1,-,N/A,,Clear,120,2013-03-21 09:53:00
5:53 AM,52.0,34.0,50,29.94,10.0,SE,8.1,-,N/A,,Mostly Cloudy,130,2013-03-21 10:53:00
6:53 AM,53.1,33.1,47,29.94,10.0,SE,15.0,-,N/A,,Mostly Cloudy,140,2013-03-21 11:53:00
7:53 AM,53.1,34.0,48,29.94,10.0,SE,9.2,-,N/A,,Overcast,140,2013-03-21 12:53:00
8:53 AM,54.0,36.0,51,29.94,10.0,SE,9.2,-,N/A,,Overcast,130,2013-03-21 13:53:00
9:53 AM,57.0,36.0,45,29.93,10.0,SE,10.4,-,N/A,,Mostly Cloudy,140,2013-03-21 14:53:00
10:53 AM,60.1,35.1,39,29.89,9.0,SE,12.7,-,N/A,,Mostly Cloudy,140,2013-03-21 15:53:00
11:53 AM,64.9,39.9,40,29.86,10.0,South,19.6,-,N/A,,Partly Cloudy,170,2013-03-21 16:53:00
12:53 PM,69.1,43.0,39,29.81,10.0,South,23.0,29.9,N/A,,Partly Cloudy,170,2013-03-21 17:53:00
1:53 PM,72.0,45.0,38,29.76,10.0,South,21.9,31.1,N/A,,Scattered Clouds,170,2013-03-21 18:53:00
2:53 PM,69.1,48.0,47,29.72,10.0,South,19.6,31.1,N/A,,Overcast,180,2013-03-21 19:53:00
3:53 PM,69.1,50.0,51,29.68,10.0,South,21.9,28.8,N/A,,Overcast,180,2013-03-21 20:53:00
4:53 PM,69.1,52.0,54,29.65,10.0,South,17.3,25.3,N/A,,Overcast,170,2013-03-21 21:53:00
5:53 PM,69.1,52.0,54,29.64,10.0,SSE,15.0,-,N/A,,Overcast,160,2013-03-21 22:53:00
6:53 PM,68.0,53.1,59,29.63,10.0,South,12.7,-,N/A,,Overcast,170,2013-03-21 23:53:00
7:53 PM,68.0,54.0,61,29.63,10.0,SSE,17.3,-,N/A,,Overcast,160,2013-03-22 00:53:00
8:53 PM,66.0,55.0,68,29.63,10.0,SSE,15.0,26.5,N/A,,Clear,160,2013-03-22 01:53:00
9:53 PM,64.9,55.9,73,29.63,10.0,South,20.7,27.6,N/A,,Clear,170,2013-03-22 02:53:00
10:53 PM,64.9,57.0,75,29.62,10.0,South,20.7,29.9,N/A,,Clear,170,2013-03-22 03:53:00
11:34 PM,64.4,57.2,77,29.64,10.0,South,18.4,24.2,N/A,,Mostly Cloudy,170,2013-03-22 04:34:00
11:53 PM,64.9,57.0,75,29.64,10.0,South,16.1,28.8,N/A,,Overcast,170,2013-03-22 04:53:00